Temp
21 21 21 21 21 21 21 21 21 21 21 21 21 22 22 22 22 21 22 22 22 22 22 22 22 22 22 22 22 22 22 22 22 22 22 22 22 22 22 22 21 22 22 22 22 21 21 22 21 22 22 22 22 22 22 22 22 22 22 22 22 22 22 22 22 22 22 21 21 21 21 21 21 21 21 21 22 21 22 22 22 22 22 22 22
22 21 21 21 21 21 21 21 21 21 21 21 21 21 21 22 22 22 22 22 22 22 22 22 22 22 22 22 22 22 22 22 22 22 22 22 22 22 22 21 21 21 22 22 22 21 21 21 21 21 21 21 22 22 22 22 22 22 22 22 22 22 22 22 22 22 22 22 22 22 21 21 21 21 21 21 22 22 22 22 22 22 21 22 22
22 21 21 21 21 21 21 21 21 21 21 21 21 21 21 21 22 22 21 21 21 22 22 22 22 22 22 22 22 22 22 22 22 22 22 22 21 21 21 21 21 21 22 22 21 21 21 21 21 21 21 21 22 22 22 22 22 22 22 22 22 22 22 22 21 21 22 22 22 22 21 21 21 21 21 21 22 22 22 22 22 22 21 21 22
22 21 21 21 21 21 21 21 21 21 21 21 21 21 21 21 22 22 21 21 22 22 21 21 22 22 22 22 22 22 22 21 22 22 22 21 21 21 21 21 21 21 21 21 21 21 21 21 21 21 21 22 22 22 22 22 22 22 22 22 22 22 22 22 22 21 22 22 22 22 22 21 21 21 21 22 22 22 22 22 22 21 21 21 21
22 21 21 21 21 21 21 21 21 22 21 21 21 21 21 21 21 21 21 21 21 21 21 21 21 22 22 22 22 22 21 21 21 22 21 21 22 22 22 22 21 21 21 21 21 21 21 21 21 22 22 22 22 22 22 22 22 22 22 22 22 22 22 22 22 22 22 22 22 22 22 22 21 21 21 22 22 22 22 22 21 21 21 21 21
22 21 21 21 21 21 21 21 21 22 22 21 21 22 21 21 21 21 22 21 21 21 22 21 22 22 22 22 22 22 21 21 21 22 21 22 22 22 22 22 22 22 21 21 21 21 21 21 22 22 22 22 22 22 22 22 22 22 22 22 22 22 22 22 22 22 22 22 22 22 22 22 21 21 21 21 21 21 21 21 21 21 21 21 21
22 21 21 21 21 21 21 21 21 21 21 22 22 22 22 21 21 22 22 22 21 22 22 21 22 22 22 22 22 22 22 22 22 22 21 21 22 22 22 22 22 22 21 21 21 21 21 21 21 21 21 22 22 22 22 22 22 22 22 22 22 22 22 22 22 22 22 22 22 22 22 22 22 21 21 21 21 21 21 21 21 21 21 21 21
21 22 22 21 21 21 21 21 21 21 21 22 22 22 22 21 21 22 22 22 22 22 21 21 22 22 22 22 22 22 22 22 22 22 21 21 22 22 21 21 22 22 21 21 21 21 21 21 21 21 21 22 22 22 22 22 22 22 22 22 22 22 22 22 22 22 22 22 22 22 22 22 21 21 21 21 21 21 21 21 21 21 21 21 21
22 22 22 22 21 21 21 21 21 21 21 22 22 21 21 21 21 21 22 22 22 22 22 22 22 22 22 22 22 22 22 22 22 22 21 21 22 22 21 21 22 22 22 21 21 21 21 21 21 22 22 22 22 22 22 22 22 22 22 22 22 22 22 22 22 22 22 22 22 22 22 22 22 22 22 22 22 22 22 22 22 21 21 21 21
22 22 22 22 21 21 21 21 21 21 22 22 21 21 21 21 21 21 21 22 22 22 22 22 22 22 22 22 22 22 22 22 22 22 21 21 21 21 20 21 21 22 22 21 21 21 21 21 22 22 22 22 22 22 21 22 22 22 22 22 22 22 22 22 22 23 23 23 22 22 22 22 22 22 21 21 21 21 21 22 22 21 21 21 21
22 22 22 22 21 21 21 21 21 21 21 21 21 21 21 21 21 21 21 21 22 21 21 22 22 21 22 22 22 22 22 22 22 21 21 21 21 21 20 20 21 22 22 22 22 21 21 22 22 22 22 22 22 22 22 22 22 22 22 22 22 22 22 22 22 23 23 23 22 23 22 22 22 22 21 21 21 21 21 21 21 21 21 21 21
22 22 22 22 21 21 21 21 21 21 21 21 21 21 21 21 21 22 21 21 22 21 21 22 22 21 21 22 22 22 22 22 21 21 21 21 21 21 21 20 21 21 22 22 22 21 21 22 22 22 22 22 22 22 22 22 22 22 22 22 22 22 23 22 22 22 22 23 23 23 23 22 22 21 20 21 20 21 21 21 21 20 20 20 20
21 21 22 21 21 21 21 21 21 21 21 21 21 21 21 21 20 22 22 21 22 21 21 22 22 22 21 22 22 22 22 22 22 21 21 21 21 21 21 21 20 21 21 22 22 21 21 22 22 22 22 22 22 22 22 22 22 22 22 22 22 23 23 23 22 22 22 23 23 23 22 22 22 21 20 21 20 21 21 21 20 20 20 20 20
21 21 21 21 21 21 21 21 21 21 21 21 21 21 21 21 20 21 22 21 22 21 21 21 22 22 21 22 22 22 22 22 22 21 21 21 21 22 22 22 21 21 21 21 21 21 21 22 22 22 22 22 22 22 22 22 22 22 22 22 22 23 23 23 23 22 22 23 23 23 22 22 21 21 21 21 20 21 20 20 20 20 20 20 20
22 22 21 21 22 21 21 21 21 21 21 21 21 21 21 21 20 21 22 22 21 21 21 21 22 22 21 22 22 22 22 21 21 22 21 21 21 21 22 22 22 21 21 21 22 22 22 22 22 22 22 22 22 22 22 22 22 22 22 22 23 23 23 23 23 23 22 22 23 23 22 22 21 21 21 20 20 20 20 20 20 20 20 20 20
22 22 21 21 21 21 21 21 21 21 21 21 21 21 21 20 20 20 21 21 21 21 21 21 21 22 21 22 22 22 22 21 21 21 21 21 21 21 21 22 22 22 22 22 22 22 23 22 22 22 23 23 22 22 22 23 22 22 22 22 23 23 23 23 23 23 23 22 22 22 23 22 22 22 21 20 20 20 20 20 20 20 20 20 20
21 21 21 21 21 21 21 21 21 21 21 21 21 21 21 21 20 20 20 21 21 21 21 22 22 22 22 22 22 22 22 21 21 21 21 21 21 21 21 22 22 22 22 22 22 22 22 22 23 23 23 23 23 23 23 23 23 23 23 23 22 22 23 23 23 23 23 22 22 22 22 22 22 22 21 20 20 20 20 20 20 20 20 20 20
21 21 21 21 21 20 21 22 21 21 21 21 21 21 21 21 21 20 20 20 21 21 21 22 22 21 22 22 22 22 22 22 21 21 21 21 21 21 22 22 22 22 22 22 22 22 22 22 22 23 23 23 23 23 23 23 23 23 23 23 23 22 22 23 23 23 23 22 22 22 22 22 22 22 21 20 20 20 20 20 20 20 20 20 20
21 21 21 20 20 20 21 22 21 21 21 22 21 21 21 21 21 20 20 20 21 21 21 21 21 21 21 22 22 22 22 22 21 21 21 21 21 21 21 22 22 22 22 22 22 22 22 22 22 23 23 23 23 23 23 23 23 23 23 23 23 23 23 23 23 23 23 23 22 22 22 22 22 22 21 20 20 20 20 20 20 20 20 20 20
21 21 20 20 20 20 20 22 21 21 21 22 21 21 21 21 21 21 20 20 21 21 21 21 21 21 21 22 22 22 22 22 21 21 21 21 21 21 22 22 22 22 22 22 22 22 22 22 22 22 23 23 23 23 23 23 23 23 23 23 23 23 23 23 23 23 23 23 23 22 22 22 22 21 20 20 20 20 20 20 20 20 20 20 20
21 20 20 20 20 20 20 21 22 21 21 21 21 21 21 21 21 21 20 20 20 21 20 21 21 21 21 21 21 22 22 21 21 21 21 22 22 22 22 22 23 23 23 22 22 22 22 22 22 23 23 23 23 23 24 24 24 24 24 24 23 23 23 23 23 23 23 23 23 22 22 22 22 21 20 20 20 20 20 20 20 20 20 20 20
20 20 20 20 20 20 20 20 21 21 21 21 21 21 21 21 21 21 20 20 20 21 20 20 21 21 21 21 21 22 22 21 21 22 21 22 22 22 22 22 23 23 23 23 23 22 22 23 23 23 23 23 23 24 24 24 24 24 24 24 24 24 23 23 23 23 23 23 23 22 22 22 22 21 20 20 20 20 20 20 20 20 20 20 20
20 20 20 20 20 20 20 20 20 20 20 21 21 21 21 21 21 21 20 20 20 20 20 20 21 21 21 21 21 22 22 21 21 22 21 22 22 22 22 22 23 23 23 23 23 23 23 23 24 24 24 24 24 24 24 24 24 24 24 24 24 24 24 24 24 24 23 23 23 22 22 22 22 21 20 20 20 20 20 20 20 20 20 20 20
20 20 20 20 20 20 20 20 20 20 20 20 20 20 21 21 21 21 20 20 20 20 20 21 21 21 21 21 22 22 22 21 21 22 22 22 22 23 23 23 23 23 23 23 24 24 24 24 24 24 24 24 24 24 24 24 24 24 24 24 24 24 24 24 24 24 24 23 23 23 23 23 22 22 21 20 20 20 20 20 20 20 21 21 21
20 20 20 19 19 20 20 20 20 21 20 20 20 20 20 21 20 20 20 20 20 20 21 21 21 21 21 21 22 22 22 21 22 22 22 22 23 23 23 23 23 23 24 24 24 24 25 25 25 25 25 24 25 25 25 25 25 25 25 24 24 24 25 25 25 24 24 24 23 23 23 23 23 22 22 21 21 20 20 21 21 21 21 22 22
20 20 20 19 19 20 20 20 20 20 20 20 20 20 20 20 20 20 20 20 20 21 21 21 21 21 21 22 22 22 22 22 22 22 23 23 23 23 23 23 24 24 24 24 24 25 25 24 24 25 25 25 25 25 25 25 25 25 25 25 25 25 25 25 25 25 24 24 24 24 23 23 23 23 22 21 21 21 21 21 21 22 22 22 22
20 20 20 19 19 19 20 20 20 20 20 20 20 20 20 20 20 20 20 21 21 21 21 21 21 21 22 22 22 22 22 22 22 23 23 23 23 23 24 24 24 24 24 24 24 24 24 24 25 25 25 25 25 25 25 25 25 25 25 25 26 25 25 25 25 25 25 24 24 24 24 23 23 23 23 22 22 22 22 22 22 22 22 22 22
20 20 20 20 20 19 19 19 19 19 20 20 20 20 20 20 20 20 21 21 21 21 21 21 21 22 22 22 22 22 22 23 23 23 23 23 24 24 24 24 24 24 24 24 24 24 24 25 25 25 26 26 26 26 26 26 26 26 26 26 26 25 25 25 25 25 25 25 25 25 24 24 24 24 24 23 23 23 23 23 23 23 23 23 23
20 20 20 20 20 19 19 19 19 19 20 19 19 20 20 20 20 21 21 21 21 21 21 22 22 22 22 22 22 22 23 23 23 23 23 24 24 24 24 24 24 24 24 24 24 25 25 25 25 26 26 26 27 27 27 26 26 26 26 26 26 25 26 26 26 26 26 25 25 25 25 25 25 24 24 24 24 24 24 24 23 23 23 24 24
20 20 19 19 20 19 19 20 20 19 20 19 20 20 20 20 20 21 21 21 21 21 22 22 22 22 22 22 22 23 23 23 23 23 23 24 24 24 24 24 24 24 24 24 24 25 25 25 26 26 26 27 27 27 27 27 26 26 26 26 25 26 26 26 26 26 26 26 26 26 25 25 25 25 25 24 24 24 24 24 24 24 24 24 24
20 20 20 20 20 19 19 20 20 20 20 20 20 20 20 20 21 21 21 22 22 22 22 22 22 22 22 22 22 22 23 23 23 23 23 24 24 24 24 24 24 24 24 25 25 25 25 26 26 26 27 27 27 27 27 27 26 26 26 26 26 26 26 26 26 26 26 26 26 26 26 26 25 25 25 25 25 25 25 25 25 25 25 25 25
20 20 20 20 20 20 19 20 20 20 20 20 20 21 21 21 21 21 22 22 22 22 22 22 22 22 22 22 22 22 23 23 23 23 23 24 24 24 24 25 25 25 25 25 25 25 25 26 26 26 27 27 27 28 27 27 27 26 26 26 26 26 26 26 26 26 26 26 26 26 26 26 26 26 26 26 25 25 25 25 25 25 25 25 25
21 21 21 20 20 20 20 20 20 20 21 21 21 21 21 21 21 21 22 22 22 22 22 22 22 22 22 22 23 23 23 23 23 23 24 24 24 24 25 25 25 25 25 25 25 25 26 26 26 26 27 27 28 28 27 27 27 26 26 26 26 26 26 26 26 27 27 27 27 26 26 26 26 26 26 26 26 26 26 26 26 26 26 26 26
21 21 21 20 20 20 20 20 20 20 21 21 21 21 21 21 22 22 22 22 22 22 22 22 22 22 23 23 23 23 23 24 24 24 24 24 24 24 25 25 25 25 25 25 25 26 26 26 26 26 27 28 28 28 27 28 27 27 27 26 26 26 26 27 27 27 27 27 27 27 27 27 27 27 27 27 27 27 26 26 26 27 26 26 26
21 21 21 21 20 20 20 20 20 21 21 21 21 22 22 22 22 22 22 22 22 22 23 23 23 23 23 23 24 24 24 24 24 24 24 24 24 25 25 25 25 25 25 25 25 26 26 26 26 27 27 28 28 28 28 28 27 27 27 26 27 26 27 27 27 27 27 27 27 27 27 27 27 27 27 27 27 27 27 27 27 27 27 27 27
22 21 21 21 21 21 21 20 21 21 21 22 22 22 22 22 23 23 23 23 23 23 23 23 23 23 24 24 24 24 24 24 24 24 24 24 25 25 25 25 25 25 25 25 25 26 26 26 26 27 27 28 28 28 28 28 27 27 27 27 27 27 27 27 27 27 27 27 27 27 27 27 27 27 27 27 27 27 27 27 27 27 27 27 27
22 22 21 21 21 21 21 21 21 21 22 22 22 22 23 23 23 23 23 23 23 23 23 23 23 24 24 24 24 24 24 24 24 24 24 24 25 25 25 25 25 25 25 25 25 26 26 26 27 27 27 28 28 28 28 28 27 27 27 27 27 27 27 27 27 27 27 27 27 28 28 28 28 28 27 27 27 27 27 27 27 27 27 27 27
22 22 22 22 22 22 21 21 22 22 22 22 23 23 23 23 23 23 23 23 23 23 23 23 24 24 24 25 25 24 24 24 24 24 24 25 25 25 25 25 25 25 25 25 25 26 26 26 27 27 27 28 28 28 28 28 28 27 27 28 28 28 28 28 28 28 27 28 28 28 28 28 28 28 28 28 28 28 28 28 27 27 27 27 27
22 22 22 22 22 22 22 22 22 22 22 22 23 23 23 23 23 23 23 23 23 23 23 23 23 24 24 25 24 24 24 24 24 24 24 24 25 25 25 25 25 25 25 25 25 26 26 26 27 27 27 28 28 28 28 28 28 28 28 28 28 28 28 28 28 28 28 28 28 28 28 28 28 28 28 28 28 28 28 28 27 27 27 27 27
22 22 22 22 22 22 22 22 22 22 22 22 23 23 23 23 23 23 23 23 23 23 23 23 23 23 24 24 24 24 24 24 24 24 24 25 25 25 25 25 25 25 25 25 25 26 26 26 27 27 27 28 28 28 28 28 28 28 28 28 28 28 28 28 28 28 28 28 28 28 28 28 28 28 28 27 27 28 27 27 27 27 27 27 27
22 22 23 22 22 22 22 22 22 22 22 22 23 23 23 23 23 23 23 23 23 23 23 23 23 23 23 23 24 24 24 24 24 24 25 25 25 25 25 25 25 25 25 25 25 26 26 26 26 27 27 27 28 28 28 28 28 28 28 28 28 28 28 28 28 28 28 28 28 28 28 27 28 27 27 27 27 27 27 26 27 27 27 27 27
22 22 23 22 22 22 23 23 23 23 23 23 23 23 23 23 23 23 24 24 24 24 24 24 23 23 23 23 23 24 24 24 24 24 25 25 25 25 25 25 25 25 25 25 25 25 26 26 26 26 27 27 27 27 28 28 28 27 27 27 27 27 28 28 28 27 27 27 27 27 27 27 27 27 27 27 26 26 26 26 27 27 26 26 26
22 23 23 23 22 23 23 23 23 23 23 23 23 23 23 24 24 24 24 24 24 24 24 24 24 23 23 23 23 24 24 24 24 24 25 25 25 25 25 25 25 25 25 25 25 25 26 26 26 26 26 27 27 27 27 28 27 27 27 27 26 26 27 27 27 27 27 27 27 27 27 27 27 27 27 26 26 26 26 26 26 26 26 26 26
22 22 23 23 22 23 23 23 23 23 23 23 23 23 23 24 24 24 24 24 24 25 24 24 24 23 23 23 23 23 24 24 24 24 24 25 25 25 25 25 25 25 25 25 25 25 25 26 26 26 26 26 26 27 27 27 27 27 27 26 24 24 27 26 26 27 27 27 27 27 27 27 27 27 26 26 26 26 26 26 26 26 26 26 26
23 23 23 23 23 23 23 23 24 23 23 23 24 24 24 24 24 24 24 24 24 24 24 24 23 23 23 23 23 24 24 24 24 24 24 24 24 24 25 25 25 25 25 25 25 25 25 25 25 26 26 26 26 26 27 26 26 27 26 25 24 25 26 25 24 26 27 27 27 27 27 27 27 27 27 27 27 26 26 26 26 26 26 26 26
23 23 23 23 23 23 24 24 24 24 24 24 24 24 24 24 24 23 23 23 23 23 24 24 24 24 23 23 23 24 24 24 24 24 24 24 24 24 24 24 24 25 25 25 25 25 25 25 25 25 25 26 26 26 26 26 26 26 26 26 26 26 26 25 25 26 26 27 27 27 27 27 27 27 27 27 27 26 26 26 26 26 26 26 26
23 23 23 24 24 24 24 24 24 24 24 24 24 24 24 24 24 24 24 24 23 24 24 25 24 24 24 24 24 24 24 24 24 24 24 24 24 24 24 24 24 24 24 25 25 25 25 25 25 25 25 25 26 25 25 26 26 26 26 25 25 25 26 25 25 25 25 26 27 27 27 27 27 27 27 27 27 26 26 26 26 26 26 26 26
23 23 23 24 24 24 24 24 24 24 24 24 24 24 24 24 24 24 24 24 24 25 25 25 24 24 24 24 24 24 24 24 24 24 24 24 24 24 24 24 24 24 24 24 25 25 25 25 25 25 25 25 25 25 25 25 25 25 25 25 25 25 25 25 25 25 24 25 26 26 26 27 27 27 27 27 26 26 26 26 26 26 26 26 26
24 24 24 24 24 25 24 24 24 24 25 25 25 24 24 24 24 24 24 24 25 25 25 25 24 24 24 24 24 24 24 24 24 24 24 24 24 24 24 24 24 24 24 24 24 25 25 25 25 25 25 25 25 25 25 25 25 25 25 25 25 25 25 25 25 25 24 24 25 25 25 26 26 27 27 26 26 26 26 26 26 26 26 26 26
24 24 24 24 24 24 25 25 24 25 25 25 25 25 24 24 24 24 24 25 24 24 25 24 24 24 24 24 24 24 24 24 24 24 24 24 24 24 24 24 24 24 24 24 24 24 25 25 25 25 25 25 25 25 25 25 25 25 25 25 25 25 25 25 25 25 24 24 24 24 24 24 24 26 27 26 26 26 26 26 26 26 26 26 26
24 24 24 24 24 24 24 25 25 25 25 25 25 25 24 24 24 25 25 25 25 24 25 24 24 24 24 24 24 24 24 24 24 24 24 24 24 24 24 24 24 24 24 24 24 24 24 25 25 25 25 25 25 25 25 25 25 25 25 25 25 25 24 24 25 25 24 24 24 24 24 24 24 25 26 26 26 26 26 26 26 26 26 26 26
Height
800 802 803 804 806 807 808 809 810 810 811 813 813 814 814 814 815 816 816 816 816 816 816 816 817 817 817 817 818 818 818 819 819 820 820 821 821 822 823 825 826 827 827 825 825 827 829 829 829 829 829 830 830 830 830 830 830 831 831 832 832 832 833 833 834 835 835 836 836 837 837 838 838 839 840 840 841 841 841 842 842 842 842 843 843
800 802 804 805 806 807 809 809 811 812 813 814 814 815 816 816 816 817 817 817 817 817 817 818 818 818 819 819 819 819 819 820 820 821 821 822 822 823 825 826 827 828 827 826 827 829 831 830 830 830 830 831 831 832 831 832 832 833 833 833 833 833 834 834 835 836 837 837 838 838 838 839 839 840 841 841 842 842 842 843 843 843 843 844 844
800 803 804 805 807 808 809 810 811 812 813 814 815 816 817 818 817 817 818 819 818 819 819 819 819 819 820 820 820 821 821 821 822 822 823 823 824 825 826 827 829 830 829 828 829 831 832 831 831 831 831 831 832 833 832 833 833 834 835 835 835 835 835 836 837 837 838 838 839 839 839 840 840 841 842 842 843 843 843 843 843 844 844 844 845
802 803 805 806 807 808 809 811 812 812 813 814 816 816 817 819 819 819 820 820 819 819 820 820 820 820 821 822 822 822 822 823 823 823 824 824 825 826 826 827 829 831 831 831 832 833 833 833 832 832 832 833 833 833 834 834 835 835 836 836 836 836 836 837 838 838 838 839 839 839 840 840 841 842 842 843 843 844 844 844 844 844 845 845 845
803 804 805 807 808 809 810 811 812 813 814 815 816 817 818 819 820 820 821 821 820 820 820 821 821 821 822 823 823 824 824 824 824 825 825 826 824 825 826 827 829 830 831 832 833 833 834 834 833 833 834 834 834 835 835 835 836 836 837 837 838 838 838 838 839 839 839 839 840 840 840 840 841 842 843 844 844 844 845 845 845 845 845 845 846
804 805 806 808 809 810 811 812 813 813 814 815 816 817 819 820 821 821 821 820 820 820 820 821 821 822 823 824 825 825 825 825 825 826 827 827 825 825 827 828 828 829 831 833 833 834 834 835 834 834 835 836 836 836 837 837 837 837 838 838 839 839 839 840 840 840 840 840 840 840 841 841 842 843 843 844 845 845 845 846 846 846 846 846 846
805 806 807 808 810 811 812 812 813 814 815 816 817 818 819 821 822 821 821 821 820 819 820 822 822 823 824 825 825 826 826 825 826 828 829 829 827 827 829 829 829 830 832 834 834 835 835 835 836 836 836 837 837 837 838 838 838 839 839 839 840 840 841 841 842 842 842 841 841 841 842 842 842 843 844 845 845 846 846 846 846 847 847 847 847
805 807 808 809 810 811 812 813 814 815 816 817 818 819 820 822 822 822 822 822 821 820 821 822 822 824 825 826 826 827 827 826 827 828 831 831 829 829 831 831 830 831 833 835 835 835 835 836 837 837 838 838 838 839 839 839 840 840 841 841 840 841 841 842 843 843 843 843 843 843 843 843 844 844 845 846 846 846 847 847 847 847 847 847 847
806 807 808 810 811 812 813 813 815 816 816 817 818 819 821 822 823 823 823 822 821 821 822 823 823 824 826 827 827 828 828 828 828 829 831 833 833 832 834 835 833 832 833 835 836 837 836 837 837 838 839 839 840 840 840 840 840 841 841 842 842 842 842 843 843 843 844 844 844 844 845 845 845 845 846 846 847 847 847 847 847 848 848 848 848
807 808 809 810 811 813 813 814 816 816 817 818 819 820 822 823 823 824 826 824 823 823 823 823 824 825 826 827 828 828 829 829 829 830 831 834 835 836 837 838 836 834 833 836 837 838 838 838 839 839 840 840 841 841 841 841 840 841 842 842 843 843 843 843 843 843 844 844 845 845 846 846 847 847 847 848 848 848 848 848 848 848 848 848 848
807 809 810 811 812 813 814 816 817 817 818 819 820 821 823 824 822 823 827 826 825 824 824 824 824 825 827 828 829 829 830 830 830 831 832 834 836 837 839 839 839 837 835 837 838 839 840 840 840 840 841 841 842 842 842 841 841 842 842 843 844 844 845 845 845 844 845 845 845 845 846 847 847 848 848 848 848 849 849 849 849 849 849 849 848
808 809 810 812 813 815 816 817 817 819 819 820 820 822 824 825 824 823 825 828 827 827 826 826 826 826 827 828 829 830 831 831 832 832 833 834 836 837 839 840 841 840 838 838 838 840 841 841 841 842 842 842 843 842 843 842 842 842 843 843 844 845 846 846 846 846 846 846 846 846 847 847 848 848 848 849 849 849 849 849 849 849 849 849 849
809 810 811 813 814 816 817 817 818 819 820 820 821 822 824 825 827 824 824 828 828 828 828 827 827 827 827 828 829 831 832 832 833 834 834 835 836 837 838 840 841 842 842 841 840 841 842 843 843 843 843 843 843 843 843 843 843 843 843 844 844 845 846 847 847 847 847 847 847 847 848 848 848 848 849 849 849 849 849 849 849 849 849 849 849
810 810 812 814 816 818 817 818 819 819 820 820 821 822 824 826 827 825 823 827 829 829 829 829 828 827 828 828 829 831 832 833 834 835 836 837 837 837 836 837 840 842 842 843 843 843 843 844 844 844 844 844 844 844 844 844 844 844 844 844 845 845 846 847 847 848 848 848 848 848 848 849 849 849 849 849 849 849 849 849 849 849 849 849 849
811 811 814 816 817 819 818 818 819 820 820 821 822 823 824 825 827 827 824 827 830 830 830 830 829 829 829 829 830 831 832 833 835 836 837 838 839 839 838 837 839 840 841 843 844 843 844 844 844 844 844 844 845 845 846 846 845 845 845 845 845 845 846 846 847 847 848 848 849 849 849 849 849 849 849 849 849 850 850 849 849 849 849 849 849
812 813 815 817 818 820 819 819 820 821 821 821 823 823 824 825 827 828 827 827 830 831 831 831 831 831 830 829 830 831 832 834 835 837 838 839 840 841 841 841 841 841 842 843 844 844 844 844 845 845 845 845 845 846 846 847 847 847 846 846 846 846 846 846 846 847 847 848 848 849 849 849 849 849 849 850 850 850 850 850 850 850 850 850 849
813 814 816 818 820 821 820 819 820 821 821 822 823 824 824 825 827 829 830 830 831 833 833 831 831 831 830 830 831 832 833 834 835 837 838 839 840 841 842 843 843 843 844 844 844 845 845 845 845 845 845 846 846 847 847 847 847 848 847 847 847 847 846 846 846 846 847 847 847 848 848 848 849 849 849 850 850 850 850 850 850 850 850 850 849
814 815 817 819 821 822 822 819 819 821 822 822 823 824 825 826 827 829 832 833 833 834 834 832 831 832 832 832 833 833 834 834 836 837 839 840 841 842 842 843 844 844 844 845 845 845 846 846 846 846 846 847 847 847 847 848 848 848 848 848 848 847 847 847 847 846 847 847 847 847 848 848 848 849 849 850 850 850 851 851 851 850 850 850 850
815 816 818 820 821 823 823 820 820 823 822 822 823 824 825 826 828 829 831 833 834 835 835 834 833 835 835 835 835 834 835 835 836 837 839 840 841 842 842 843 844 844 845 845 846 846 846 846 846 847 847 847 848 848 848 848 849 849 849 849 849 848 848 848 847 847 847 847 847 847 848 848 848 849 849 850 850 851 851 851 850 850 850 850 849
816 817 819 820 821 823 824 821 821 823 823 823 824 824 825 826 828 830 831 833 835 837 836 835 835 835 836 836 836 836 836 836 837 838 839 840 841 841 842 843 844 844 845 845 846 847 847 847 847 847 848 848 848 849 849 849 849 849 849 849 849 849 849 848 848 848 847 847 847 848 848 849 849 849 850 850 851 851 851 850 850 850 849 849 849
816 818 819 821 821 823 825 823 822 823 823 824 824 824 823 825 828 829 832 835 836 837 837 836 835 836 837 837 837 837 836 837 837 838 839 840 841 842 842 843 843 844 845 846 846 847 848 848 848 848 848 848 849 849 849 850 850 850 850 850 849 849 849 849 848 848 848 848 848 848 849 849 849 849 850 850 850 850 850 850 850 849 849 849 849
816 818 820 821 822 823 825 825 824 824 825 825 824 823 823 824 827 828 831 835 836 837 838 838 836 837 838 837 837 837 837 838 838 839 839 841 841 842 842 843 844 844 845 846 847 848 848 848 848 848 849 849 849 850 850 850 850 850 850 850 850 849 849 849 848 848 848 848 848 848 849 849 849 849 850 850 850 850 850 850 850 849 849 849 849
817 818 820 821 822 823 824 824 825 826 826 826 826 825 824 824 825 827 831 835 836 837 839 838 837 837 838 838 838 838 838 839 839 840 840 841 842 842 843 843 844 845 846 846 847 848 849 849 849 849 849 850 850 850 850 850 850 850 850 850 849 849 849 848 848 848 848 848 848 848 849 849 849 849 849 849 849 849 849 850 850 850 849 849 849
817 818 819 821 822 823 823 822 823 825 827 828 828 827 826 826 826 828 833 835 835 837 838 838 837 838 838 838 839 839 839 840 840 841 841 842 842 843 844 844 845 846 847 847 848 848 849 849 849 850 850 850 850 850 850 850 850 850 850 850 849 849 849 848 848 848 848 848 848 848 848 848 848 848 848 848 849 849 849 849 849 849 849 848 848
817 818 820 821 822 823 823 822 821 822 825 827 828 829 829 829 830 832 834 834 835 836 837 837 837 838 838 838 839 840 840 840 841 841 842 843 843 844 845 846 847 847 848 848 848 849 849 849 849 850 850 850 850 850 850 850 850 850 849 849 848 848 848 848 848 848 848 848 847 848 848 848 848 848 848 848 848 849 849 849 849 848 848 848 847
817 819 820 821 822 824 824 823 822 822 823 825 828 830 831 832 833 834 834 834 835 836 836 837 837 838 839 839 840 841 841 841 842 842 843 844 845 846 846 847 848 848 849 849 849 849 849 849 849 849 849 849 849 849 849 849 849 849 848 848 848 848 848 848 848 848 848 847 847 847 848 848 848 848 848 848 848 848 848 848 848 848 847 847 847
817 819 820 821 823 824 825 825 825 824 824 826 828 830 832 833 834 834 834 834 835 836 837 837 838 839 839 840 841 841 842 842 843 844 845 845 846 847 848 848 849 849 849 849 849 849 849 848 848 848 848 848 848 848 848 848 848 848 848 848 848 848 848 848 848 848 847 847 847 848 848 848 848 848 848 848 848 848 848 848 848 847 847 847 846
817 819 820 821 823 824 825 825 826 826 827 827 829 830 832 833 833 833 834 835 835 836 837 838 839 840 840 841 842 842 843 843 844 845 846 847 847 848 849 849 850 850 850 850 850 849 849 848 848 847 847 847 847 847 847 848 848 848 848 848 848 849 848 848 848 848 848 848 848 848 849 848 848 848 848 848 848 848 848 848 847 847 847 846 846
817 818 820 821 822 824 825 826 826 827 828 829 830 831 832 833 833 834 834 835 836 837 838 839 840 841 842 842 843 843 844 845 846 846 847 848 849 849 850 850 850 851 851 850 850 849 849 848 848 847 847 847 847 847 847 848 848 848 849 849 849 849 849 848 848 848 848 848 848 849 849 849 848 848 848 848 848 848 848 848 847 847 847 846 846
816 818 820 821 822 823 824 825 827 827 828 829 830 831 832 833 833 834 835 836 837 838 839 840 841 841 842 843 844 844 845 846 847 847 848 849 850 850 851 851 851 851 851 851 850 850 849 849 848 848 847 847 847 847 847 848 849 849 849 849 849 849 849 849 849 848 848 849 849 849 849 849 849 849 849 849 848 848 848 848 847 847 846 846 845
816 817 819 820 821 823 824 825 827 827 828 829 830 831 832 833 834 835 836 837 838 839 840 840 841 842 843 844 845 845 846 847 848 848 849 850 850 851 851 851 851 851 851 851 851 850 850 850 849 848 848 847 847 847 848 848 849 849 849 849 849 849 849 849 849 849 849 849 849 849 849 849 849 849 849 849 848 848 848 847 847 847 846 846 845
815 816 818 820 821 822 824 825 826 827 828 829 829 831 832 833 834 835 836 837 839 840 840 841 842 843 844 845 846 846 847 848 849 849 850 851 851 852 852 852 852 852 852 852 851 851 851 850 850 849 849 848 848 848 848 848 849 849 849 850 850 849 850 850 850 850 850 850 850 850 849 849 849 849 849 848 848 847 847 847 846 846 846 845 844
815 816 818 819 821 822 823 825 826 827 827 828 829 830 832 833 835 836 837 838 839 840 841 842 843 844 845 846 846 847 848 848 849 850 850 851 852 852 852 852 852 852 852 852 852 852 851 851 851 850 849 848 848 848 848 849 849 849 850 850 850 850 850 850 850 850 850 850 850 850 849 849 849 849 848 848 847 847 847 846 846 846 845 844 844
815 816 818 819 820 822 823 824 825 826 827 828 829 830 832 834 835 836 838 839 840 841 842 843 844 845 845 846 847 847 848 849 850 851 851 852 852 853 853 853 853 853 853 852 852 852 852 851 851 851 850 849 848 848 849 849 849 850 850 850 850 850 850 850 850 850 850 850 850 850 849 849 849 848 848 847 847 846 846 846 845 845 844 843 843
814 816 817 818 820 821 823 824 825 826 827 828 829 831 832 834 835 837 838 840 840 841 842 843 844 845 845 846 847 848 848 849 850 851 852 852 853 853 853 854 854 853 853 853 853 853 852 852 852 851 850 849 849 849 849 849 850 850 850 850 850 850 850 850 850 850 850 850 850 849 849 849 848 848 847 847 846 846 845 845 844 844 843 842 841
814 815 817 818 820 821 822 824 825 826 827 828 829 831 832 834 836 837 839 840 841 842 843 843 844 845 845 846 847 848 849 850 851 851 852 852 853 854 854 854 854 854 854 854 853 853 853 853 852 851 850 849 849 849 849 850 850 850 851 851 850 850 850 850 850 850 850 850 849 849 849 848 848 847 846 846 845 845 844 844 843 842 842 841 840
814 816 817 818 820 821 822 823 825 826 827 828 830 831 833 834 836 837 839 840 841 842 843 843 844 845 845 846 847 848 849 850 851 851 852 853 854 854 855 855 855 855 855 854 854 853 853 853 852 852 851 850 849 849 849 850 850 850 850 850 850 850 850 850 850 850 850 849 849 849 848 847 847 846 845 845 844 843 843 842 842 841 840 839 838
814 816 817 818 820 821 822 824 825 826 827 829 830 832 833 835 836 837 839 840 841 842 843 843 844 845 846 846 847 848 849 850 851 852 852 853 854 855 855 855 856 855 855 855 854 854 854 854 853 852 851 850 850 850 850 850 850 850 850 850 850 850 850 850 849 849 849 849 848 848 847 846 846 845 844 843 843 842 841 841 840 840 839 838 837
814 816 817 819 820 821 822 824 825 826 828 829 831 832 833 835 836 837 839 840 841 842 843 843 844 845 846 846 847 848 849 850 851 852 852 853 854 855 855 856 856 856 855 855 855 855 855 854 853 853 852 851 851 850 850 850 850 850 850 850 850 850 849 849 849 849 848 848 847 847 846 846 845 844 843 842 842 841 840 840 839 839 838 837 836
814 816 817 819 820 822 823 824 826 827 828 829 831 832 833 835 836 837 838 839 841 842 843 843 844 845 846 846 847 848 849 850 851 852 852 853 854 855 855 855 856 856 856 856 856 855 855 855 854 853 853 852 851 851 850 850 850 850 850 849 849 849 849 849 849 848 848 847 846 846 846 845 844 843 843 842 841 840 840 839 839 838 837 836 836
814 816 817 819 820 821 823 824 825 827 828 829 830 832 832 834 835 836 838 839 840 841 842 843 844 845 846 846 847 848 849 850 851 851 852 853 854 854 855 855 855 856 856 856 856 855 855 855 854 854 853 853 852 851 851 850 850 850 850 849 849 849 849 849 848 848 847 847 846 846 845 844 844 843 842 841 841 840 839 839 838 837 836 835 835
813 815 816 818 820 822 823 824 825 827 828 829 830 831 832 833 834 836 837 839 840 841 842 843 843 845 845 846 847 848 849 850 851 851 852 853 853 854 855 855 855 855 856 856 856 856 856 856 855 854 854 853 852 851 851 850 850 850 849 849 849 849 849 848 848 848 847 847 846 845 845 844 843 842 842 841 840 840 839 838 837 836 835 834 834
812 814 816 818 820 821 823 824 825 827 828 829 830 831 833 834 835 836 837 839 840 840 841 842 843 844 845 846 847 848 849 850 850 851 852 852 853 854 854 855 855 855 856 856 856 856 856 856 855 855 854 853 853 852 851 850 850 850 850 851 852 851 851 849 848 847 846 846 845 845 844 844 843 842 842 841 840 839 839 838 836 835 834 834 833
812 814 815 817 819 821 822 823 825 826 828 829 830 832 833 834 836 837 838 838 839 840 841 842 843 844 845 846 847 848 849 849 850 850 851 852 853 854 854 854 855 855 856 856 856 856 856 856 856 855 855 854 853 852 852 851 851 850 851 853 853 854 855 851 847 846 846 846 845 845 845 844 843 842 842 841 840 839 838 837 836 834 834 833 833
811 812 814 816 818 820 821 823 824 826 827 829 830 832 833 835 835 836 837 838 839 839 840 842 843 844 845 846 847 848 848 849 850 850 851 852 853 853 854 854 855 855 855 856 856 856 856 856 856 855 855 854 854 853 853 852 852 851 852 853 854 857 856 852 849 847 845 845 845 845 844 844 843 842 841 840 840 839 838 837 835 834 834 833 833
809 810 812 814 816 819 821 822 824 825 827 828 830 832 833 834 835 835 836 837 838 839 839 840 842 843 844 845 846 847 848 849 849 850 851 852 852 853 853 854 854 855 855 855 856 856 856 856 856 855 855 855 854 854 853 853 853 852 852 852 854 855 853 851 851 851 847 845 845 845 844 843 843 842 841 840 839 838 837 836 835 834 833 833 833
807 809 811 813 815 818 820 821 823 825 826 828 829 831 832 833 834 835 835 836 837 838 838 840 841 842 844 845 846 846 847 848 849 850 850 851 852 852 853 853 854 854 855 855 855 856 856 855 855 855 855 855 854 854 854 854 853 853 853 852 852 852 851 850 851 852 851 848 845 844 844 843 843 842 841 840 839 838 837 835 835 834 833 833 833
806 808 810 812 814 816 818 820 822 824 826 827 828 830 831 832 834 834 835 835 836 837 838 839 840 842 843 844 845 846 846 847 848 849 849 850 851 852 852 853 853 854 854 855 855 855 855 855 855 855 855 855 855 854 854 854 854 853 853 852 852 851 851 850 850 851 853 852 847 843 843 842 842 841 841 840 839 838 836 835 834 833 833 833 832
805 807 808 811 813 815 817 819 821 823 825 826 827 829 830 832 833 834 835 835 836 837 838 839 840 841 842 843 844 845 845 846 847 848 848 849 850 851 852 852 853 853 854 854 854 854 854 854 854 854 854 854 854 854 854 854 854 853 853 852 852 851 850 850 850 850 850 852 850 845 843 842 840 840 840 839 838 837 836 835 834 833 833 832 832
804 805 807 810 812 814 816 818 820 822 824 826 827 828 829 830 832 833 834 835 836 837 838 838 840 840 841 842 843 844 845 845 846 847 847 848 849 850 851 851 852 852 853 853 853 853 854 854 854 854 854 854 853 853 853 853 853 853 852 852 851 851 850 849 849 849 849 850 849 846 844 843 841 839 839 839 838 837 836 835 834 833 833 832 832
803 805 807 809 811 813 815 817 819 821 823 825 826 827 828 829 831 832 833 834 835 836 837 838 838 840 841 841 842 843 844 844 845 846 847 847 848 849 850 850 850 851 851 852 852 853 853 853 853 853 853 852 853 853 853 853 852 852 852 851 851 850 850 850 849 849 848 848 848 846 844 843 842 839 838 838 837 837 836 835 834 833 833 832 832
Wind_Speed
11 11 11 12 12 12 12 11 12 12 11 9 8 8 8 8 8 8 9 11 11 11 11 11 12 12 12 12 12 11 11 12 12 13 13 13 13 15 16 15 15 14 14 14 14 13 12 12 11 12 13 14 14 14 14 14 14 15 15 16 17 17 17 18 18 17 17 17 17 17 17 16 15 14 14 14 14 14 14 14 13 13 13 13 12
14 13 12 12 13 12 12 12 12 12 11 10 9 9 8 8 8 9 9 10 10 11 12 12 12 12 12 13 12 11 11 12 12 12 12 13 13 15 16 16 16 15 14 14 15 14 13 13 13 13 14 15 15 15 14 14 15 15 15 16 16 16 17 17 16 16 16 16 16 16 16 16 15 14 14 14 14 14 14 14 14 14 13 12 12
15 14 12 12 13 12 11 11 12 11 11 10 9 9 9 8 8 9 9 8 10 11 12 12 12 12 12 13 13 12 12 11 11 11 13 13 13 14 15 15 16 15 14 15 16 14 13 13 14 14 14 15 16 15 15 14 15 15 15 15 14 15 16 16 15 15 15 15 15 16 16 16 15 14 14 14 14 14 14 14 13 13 12 12 12
14 14 12 12 12 12 11 11 11 10 10 9 9 9 9 9 8 9 9 9 11 12 11 11 12 13 13 13 13 13 12 11 11 12 13 14 13 14 14 15 15 15 14 16 16 15 15 14 15 14 15 15 16 16 15 15 15 15 15 14 14 14 14 15 14 13 14 14 15 16 17 17 15 14 14 13 13 13 13 13 12 12 11 11 11
14 14 12 12 13 12 10 10 10 9 9 8 9 8 9 10 9 9 10 10 11 11 10 11 11 12 13 13 13 13 12 12 12 12 14 14 13 12 14 15 14 15 15 16 16 16 16 15 16 16 15 15 15 16 16 16 15 15 15 15 15 14 14 13 13 12 13 14 15 16 16 16 15 13 12 12 12 12 12 12 11 11 11 11 10
14 13 13 13 13 12 10 10 9 9 8 8 8 8 9 10 10 9 10 11 11 11 11 11 11 11 12 13 13 13 12 11 12 13 15 15 12 11 13 15 13 14 15 15 15 16 16 16 17 16 15 15 15 16 17 16 15 15 15 15 15 14 14 13 12 12 12 14 15 15 15 15 15 13 11 11 11 11 11 10 10 10 10 10 10
14 14 14 14 13 12 10 10 9 8 8 8 7 8 10 10 10 9 10 12 11 11 11 11 11 11 12 13 13 13 12 10 11 13 16 16 12 10 13 14 11 12 14 15 15 15 15 16 16 16 15 15 15 16 16 15 15 14 13 14 15 14 13 12 11 11 11 12 13 14 14 14 14 12 10 10 10 9 9 9 9 9 8 8 9
15 15 14 14 13 12 11 10 8 8 8 8 8 10 10 10 11 9 9 11 12 11 11 11 12 11 11 12 13 13 12 10 9 12 16 17 14 12 13 13 9 10 13 14 15 14 14 16 15 15 15 15 15 14 14 13 13 13 12 13 14 13 12 10 10 9 9 9 11 12 12 12 12 11 9 9 9 8 8 7 7 7 7 7 7
16 15 14 14 12 12 10 9 8 8 8 8 9 10 10 11 10 9 10 11 11 11 11 11 12 12 11 12 13 12 12 11 9 10 14 17 17 14 15 14 10 9 12 13 14 14 13 14 14 14 14 14 14 13 12 11 12 12 12 12 12 11 10 9 8 8 7 7 8 9 10 10 10 10 8 7 7 6 6 5 5 5 5 5 5
16 14 14 13 12 11 9 9 9 8 8 8 9 9 10 12 10 8 10 11 11 11 11 11 12 12 11 11 12 12 11 11 10 9 11 15 17 16 16 16 13 10 12 14 14 14 12 13 13 13 13 13 13 12 10 11 11 11 10 10 9 9 9 9 8 8 7 6 6 6 7 7 8 9 8 7 6 6 6 5 5 4 5 5 5
16 15 14 12 12 10 9 8 8 8 8 8 8 8 10 12 10 8 10 11 11 11 12 12 12 11 10 11 12 12 11 10 10 9 10 12 16 16 16 17 16 13 12 13 14 13 12 13 13 13 12 12 12 11 10 10 9 9 9 8 7 7 7 8 8 7 7 6 5 4 5 5 7 8 8 7 6 6 5 5 5 5 5 5 5
16 16 14 12 11 9 8 7 7 7 7 7 7 7 10 11 10 9 10 11 11 12 12 12 12 11 10 10 11 11 11 10 10 9 9 11 14 15 15 16 17 16 13 13 13 12 11 12 13 12 11 10 10 10 9 9 8 8 7 6 6 6 7 6 6 6 6 5 4 4 4 5 6 8 6 6 6 5 4 4 3 4 4 3 3
16 16 14 13 11 8 7 6 7 7 7 7 6 8 9 12 11 9 11 12 12 13 12 12 12 11 9 8 10 11 11 10 9 9 9 10 12 12 13 15 17 17 15 13 12 11 11 11 11 10 9 9 10 10 10 9 7 5 4 3 3 3 4 4 4 4 4 5 4 3 3 4 5 6 5 4 5 5 4 3 2 2 2 2 2
16 16 15 13 11 8 7 7 7 7 7 6 7 7 9 12 12 9 10 13 13 13 12 11 11 11 8 7 8 10 11 10 9 9 10 11 11 11 11 12 13 15 15 14 12 11 10 11 10 9 9 10 10 10 9 7 6 4 2 1 1 1 2 2 2 2 2 3 3 2 3 4 4 5 5 4 4 3 3 3 2 2 2 2 2
15 16 15 13 11 9 8 9 9 8 7 7 7 7 8 10 12 10 9 10 13 13 12 12 11 11 9 7 7 8 9 9 9 9 10 11 12 13 12 10 10 12 13 12 11 11 11 11 10 9 10 10 10 9 8 6 5 3 2 2 2 2 1 2 2 2 1 1 1 2 2 3 4 4 4 3 3 3 3 3 3 3 3 2 2
13 14 15 14 12 11 9 9 8 8 7 7 7 7 7 9 12 12 9 8 11 12 11 11 11 10 10 8 7 6 7 7 8 9 10 10 11 12 12 11 10 10 10 10 10 10 11 10 10 9 9 9 9 7 7 6 4 3 2 3 4 4 4 4 4 4 4 3 2 1 0 1 3 5 4 4 4 4 4 4 4 3 3 3 3
13 14 15 14 13 11 11 10 8 8 8 7 7 8 7 9 10 11 11 8 9 10 10 11 9 8 9 8 6 6 5 6 7 7 8 9 10 10 11 11 11 10 10 10 10 9 9 8 8 9 9 9 8 7 6 5 4 3 1 3 4 5 6 7 7 7 7 6 5 4 3 2 3 4 5 5 6 5 5 5 4 3 4 5 5
13 14 15 14 12 11 12 12 11 10 9 8 8 8 7 8 8 9 11 10 9 10 12 13 10 7 8 7 6 5 5 4 5 6 7 8 9 9 10 10 10 10 9 9 9 8 7 7 7 7 8 8 7 7 6 5 4 3 2 2 4 5 6 7 8 8 8 8 8 7 6 5 5 5 5 6 7 6 5 6 6 5 6 6 6
13 14 14 13 11 10 11 13 12 11 10 9 8 7 6 7 8 8 10 11 10 10 12 14 12 10 8 7 6 5 4 4 5 5 7 7 8 8 9 9 9 9 8 8 7 7 6 6 6 6 6 6 6 6 6 5 4 4 3 3 4 5 6 7 8 8 8 9 9 8 8 7 6 7 6 6 7 7 6 7 7 8 8 7 6
13 13 12 11 10 9 10 11 10 9 9 8 8 7 7 7 8 8 9 11 10 9 10 12 13 11 9 8 7 5 5 5 4 5 6 6 7 7 7 7 7 8 7 7 7 6 6 5 5 4 4 4 4 4 5 5 5 5 5 5 5 6 7 8 9 9 8 9 10 10 9 8 8 7 6 6 7 8 8 8 8 9 8 7 7
12 11 11 10 9 8 8 9 9 8 8 8 9 9 8 8 9 10 8 9 10 10 9 10 11 10 9 8 7 6 6 5 5 5 5 5 6 6 6 5 6 6 6 6 6 5 5 4 3 3 3 2 2 3 4 5 6 6 6 6 7 8 8 9 10 10 8 8 10 10 10 9 9 8 6 8 8 8 8 8 9 9 8 7 8
12 11 10 9 8 8 8 9 10 9 9 9 10 10 10 9 9 10 9 9 10 10 10 10 11 10 9 8 7 6 6 6 5 4 4 5 6 5 5 5 4 4 4 4 4 4 3 3 2 3 2 1 0 1 3 4 5 6 7 7 9 10 10 11 11 11 10 9 9 10 10 10 9 8 8 9 8 8 8 8 8 7 6 7 8
12 11 10 9 9 9 9 10 11 10 10 11 11 10 9 8 8 9 7 8 10 11 11 11 11 9 8 7 6 6 6 6 5 4 3 5 6 5 4 4 3 3 3 3 3 3 2 2 2 2 1 1 1 1 2 3 4 5 7 8 10 11 12 13 13 12 11 9 9 9 10 9 9 8 9 10 9 8 9 8 8 7 8 8 8
12 12 11 10 10 9 9 9 9 10 11 12 12 10 8 7 7 8 7 9 10 10 11 11 10 9 7 6 6 5 6 6 5 4 3 4 5 4 4 4 3 3 3 3 3 3 3 2 2 2 2 2 2 3 3 4 5 6 8 10 11 12 13 13 12 11 9 8 7 8 9 8 8 8 8 9 9 8 8 9 9 8 9 8 8
13 12 11 11 10 9 9 8 8 7 8 9 11 10 9 9 9 10 10 10 9 9 9 10 9 8 7 7 6 6 7 6 5 4 4 4 3 3 3 3 2 2 2 3 3 3 4 4 4 5 5 6 6 5 6 6 7 7 9 10 12 12 11 10 9 7 6 6 6 7 7 7 7 7 7 8 8 8 9 9 9 8 8 7 7
13 12 12 11 11 10 10 10 9 8 8 9 10 10 10 12 13 12 11 9 9 8 9 9 9 8 8 8 7 7 7 6 5 4 4 3 3 3 2 2 2 2 3 3 4 4 6 7 7 7 7 7 7 7 7 7 6 6 8 10 9 8 6 6 5 4 5 5 5 6 6 6 6 5 6 7 8 8 9 9 8 8 7 7 7
14 13 12 11 11 11 10 10 11 11 12 12 11 11 12 13 12 11 10 8 8 9 9 9 9 9 8 8 7 7 7 6 5 5 4 4 3 2 2 1 2 2 3 4 5 7 8 9 8 7 6 6 6 6 6 6 5 6 7 8 6 4 3 4 3 3 4 4 4 5 5 5 5 5 5 6 7 7 8 8 8 8 8 8 8
15 14 12 10 11 11 10 10 11 12 14 15 14 13 13 11 10 9 9 8 8 9 9 9 9 9 8 8 7 7 6 6 5 5 4 4 3 2 2 1 2 3 4 6 8 9 9 9 8 7 7 6 5 4 5 5 5 6 7 6 4 3 2 1 2 3 4 4 4 4 4 4 4 4 5 5 6 7 7 7 8 8 8 8 8
16 13 12 11 11 11 10 10 12 12 14 16 15 14 13 11 10 10 9 9 9 9 9 9 9 9 8 8 7 7 6 6 5 5 4 4 3 2 2 2 2 4 6 7 9 9 9 9 8 8 9 7 5 3 4 5 6 7 6 4 4 3 1 2 3 4 4 4 4 4 4 4 4 4 4 4 5 6 6 7 7 7 8 8 8
16 13 12 12 12 11 10 11 12 12 14 16 15 15 14 13 11 10 9 9 10 10 9 9 9 9 9 8 8 7 7 6 5 5 4 4 3 2 2 2 3 5 7 8 9 9 10 9 8 9 10 8 5 3 3 4 7 7 6 5 4 3 3 4 5 5 5 4 4 4 3 3 3 3 3 4 5 6 7 7 8 8 8 8 9
15 14 13 12 12 11 11 12 12 12 14 15 15 15 15 14 12 11 10 11 11 10 9 9 9 10 9 8 7 6 6 5 4 4 4 4 3 2 2 2 4 6 7 7 8 8 9 9 9 10 10 7 4 2 1 3 6 7 7 6 4 4 5 5 5 5 4 4 3 3 2 2 2 3 4 5 6 6 7 8 8 9 9 10 10
15 15 14 13 12 12 11 12 12 12 13 14 15 15 14 14 13 12 11 11 11 10 9 9 10 9 8 7 6 5 4 4 4 3 3 3 2 2 1 3 4 5 6 7 7 8 8 8 8 9 8 8 5 2 1 2 5 6 6 5 5 5 5 5 4 4 3 2 2 1 1 2 3 4 5 6 6 7 8 8 9 10 10 11 12
15 14 14 13 13 12 12 12 12 13 13 14 15 15 14 14 13 12 11 11 10 10 10 10 9 7 6 5 4 4 3 3 3 3 3 2 2 1 2 3 4 5 6 7 7 7 8 7 6 6 6 8 6 4 4 3 4 5 6 6 5 5 5 5 4 3 2 2 2 3 4 4 5 6 7 7 8 8 9 9 10 11 11 12 13
15 14 14 14 13 13 13 12 12 13 13 14 14 14 14 14 13 12 11 11 10 10 10 9 7 6 5 5 4 4 3 4 4 3 2 2 2 1 2 3 3 4 6 7 7 6 7 6 5 6 6 8 7 3 7 5 5 6 7 7 6 6 6 6 5 5 5 5 5 6 6 7 7 8 9 10 10 11 11 11 12 12 13 14 14
16 15 14 14 13 14 14 14 14 14 14 15 15 15 14 14 13 12 12 11 11 10 9 8 6 6 5 5 5 5 5 5 4 3 2 2 1 1 1 2 3 4 6 7 7 6 6 5 4 5 5 7 5 3 7 7 7 7 7 8 7 7 8 7 7 7 7 8 8 9 9 10 10 11 12 12 13 13 13 13 14 14 15 16 17
17 16 15 14 14 14 15 15 15 15 15 15 15 15 15 14 13 13 12 12 11 10 8 6 5 5 5 6 6 6 6 5 4 3 2 2 1 1 0 1 2 4 6 5 6 6 5 5 3 4 5 6 5 2 7 9 9 8 8 9 9 9 10 9 10 10 10 10 11 12 12 13 13 14 15 16 16 16 16 16 16 17 18 19 18
17 16 15 15 15 15 15 15 16 16 16 16 16 16 15 14 13 13 12 11 11 9 6 5 5 4 5 7 7 6 6 5 3 2 1 2 2 2 1 1 2 3 4 4 5 5 4 3 3 4 6 5 5 2 7 9 10 10 10 10 10 10 11 11 12 12 13 14 14 14 15 15 17 18 19 19 20 20 19 18 16 17 18 18 16
17 16 16 16 16 16 15 15 16 17 17 17 17 16 15 14 13 12 12 11 10 8 6 7 7 5 5 8 7 5 4 3 2 2 3 3 3 2 2 1 1 2 3 4 4 4 3 3 3 4 5 4 3 2 4 8 10 11 10 10 11 11 12 12 13 14 14 15 14 14 15 16 17 17 17 18 18 18 16 14 13 13 14 13 12
17 16 16 16 16 16 15 15 16 17 17 17 17 16 15 14 13 12 12 12 10 8 7 8 8 7 6 7 7 4 3 3 3 4 4 4 4 3 2 1 2 2 2 2 3 2 2 2 3 3 4 4 3 2 1 5 8 11 11 12 12 11 11 11 11 11 10 11 12 12 13 13 13 13 13 13 13 12 10 9 9 10 10 10 10
18 17 17 17 16 16 16 16 17 17 17 16 16 16 15 15 14 14 14 13 12 10 8 8 9 8 7 7 7 5 4 4 5 5 6 5 4 4 3 2 3 2 1 2 2 3 2 2 3 3 3 3 2 1 1 3 6 8 9 10 9 8 7 7 7 7 6 7 8 9 9 9 10 10 10 10 10 8 7 7 8 9 9 9 9
18 18 18 18 17 17 17 17 18 18 17 17 17 18 17 17 16 16 16 15 13 11 9 10 11 9 9 8 8 8 7 7 6 7 7 6 5 5 4 3 3 2 1 2 3 3 3 4 3 2 3 3 3 3 1 2 4 4 4 5 4 4 4 3 3 4 4 5 6 6 7 8 8 9 9 9 9 8 7 7 8 9 9 9 8
20 20 20 19 18 18 18 18 18 19 19 18 18 19 19 19 18 17 17 15 14 12 10 11 11 10 10 10 10 10 9 9 7 7 7 6 5 5 4 4 3 2 2 2 3 3 4 4 3 2 3 4 6 5 4 1 1 1 2 2 1 1 3 3 1 2 2 3 4 4 6 7 7 7 7 8 8 7 7 8 10 10 10 9 7
21 22 22 21 19 19 19 19 19 20 20 19 19 18 18 18 17 17 16 14 13 11 10 11 11 11 11 11 11 11 11 10 8 7 7 7 6 5 4 4 4 4 4 4 4 3 4 4 4 3 3 4 5 6 6 4 2 2 1 1 1 1 2 2 2 5 3 3 5 4 6 7 7 7 8 8 8 8 8 10 12 11 8 8 7
21 22 23 23 21 20 20 20 20 21 21 20 19 18 17 16 16 15 14 13 12 11 11 12 12 12 12 12 12 11 11 10 8 7 7 7 7 6 5 5 5 5 6 5 5 4 4 5 5 5 4 4 4 5 6 6 5 3 2 1 1 1 1 2 7 6 3 5 5 4 7 7 9 10 10 10 8 8 9 10 11 9 6 6 6
22 24 25 25 23 22 21 21 21 21 21 21 19 18 16 16 15 14 13 13 12 11 12 14 14 14 14 13 12 11 11 11 9 8 7 7 7 7 6 6 6 7 7 7 7 5 5 5 5 6 6 5 5 4 4 6 7 5 3 1 1 1 1 2 5 4 6 8 4 6 9 8 11 13 12 11 9 9 11 12 11 7 5 5 4
24 26 26 26 25 23 22 22 22 22 22 21 20 18 17 17 16 15 14 13 12 12 15 17 17 16 15 13 12 11 11 11 10 9 8 8 7 7 7 8 8 9 9 9 8 6 5 5 5 6 6 5 5 4 4 5 6 7 6 3 3 2 2 2 2 2 8 9 5 10 11 9 14 14 12 11 11 12 13 13 12 7 5 3 2
25 26 26 26 25 24 23 23 22 22 22 21 20 19 18 18 17 16 16 16 16 16 17 19 18 17 15 13 11 11 10 10 11 11 10 9 8 8 8 9 9 10 10 10 8 7 6 5 5 5 5 5 6 5 6 6 5 6 7 6 5 3 2 2 0 1 4 5 9 13 12 12 15 14 13 12 11 14 15 13 11 8 6 3 3
26 25 25 26 26 25 24 23 23 23 22 22 21 20 20 19 18 18 19 18 19 18 17 18 18 17 15 13 11 11 10 10 10 11 12 11 10 9 9 9 9 10 10 9 8 7 6 6 5 6 5 6 6 6 6 6 7 7 7 7 7 6 5 4 3 2 1 2 8 11 13 17 17 14 14 13 13 14 13 12 10 8 7 4 3
25 26 27 27 27 26 25 24 23 23 23 22 21 21 21 20 20 21 20 20 19 18 17 17 17 16 15 13 12 11 11 11 11 11 12 12 11 9 9 9 9 9 9 8 8 7 6 5 5 5 5 6 6 5 5 6 7 7 8 8 8 9 8 6 4 3 2 2 3 4 11 17 17 16 15 14 16 14 11 11 9 7 6 4 3
25 26 27 27 27 27 26 26 25 25 24 23 22 22 21 21 22 22 21 20 20 18 17 17 16 15 15 14 12 11 11 11 11 11 11 11 10 9 9 9 9 9 8 8 8 7 6 5 5 5 5 5 5 5 6 7 7 7 7 8 8 9 8 4 4 5 3 3 2 3 9 11 11 15 17 16 16 14 10 8 8 7 6 4 4
24 24 25 26 27 28 28 27 27 26 25 24 22 22 22 23 23 23 21 21 20 19 17 17 16 16 15 14 13 12 12 12 11 11 11 10 10 10 9 9 10 10 10 9 8 7 7 6 5 5 5 5 5 5 6 6 6 6 7 7 8 8 6 4 7 8 5 4 3 4 9 10 9 13 16 17 15 13 10 7 7 8 6 5 6
Wind_Direction
157 141 145 143 139 143 141 139 132 130 134 136 130 127 124 117 112 106 108 110 111 112 110 111 111 111 110 109 106 105 104 105 105 105 107 106 103 102 101 102 105 105 109 121 124 118 115 116 116 116 113 110 109 108 105 101 100 98 96 96 97 98 98 98 100 101 102 103 105 107 108 109 110 111 111 111 111 113 114 114 112 109 106 107 109
150 144 148 144 142 143 143 141 137 136 139 137 131 126 119 115 112 106 107 109 109 108 109 113 113 114 113 112 109 109 107 104 103 103 106 104 102 101 101 103 106 106 111 121 119 112 114 118 116 113 111 110 111 112 110 106 104 102 100 99 99 99 99 98 99 101 102 103 105 108 108 108 109 109 109 109 110 111 113 114 112 109 107 109 109
143 144 144 142 142 143 146 142 138 139 136 130 126 124 119 115 112 108 106 107 109 106 107 111 114 115 112 111 111 112 108 104 102 101 101 99 97 98 101 103 107 110 115 116 114 114 117 117 113 111 111 110 110 112 110 108 108 106 104 102 99 100 99 97 97 101 104 105 106 110 111 109 107 105 105 106 107 108 111 112 110 107 107 109 107
142 140 139 140 140 143 147 140 134 133 127 120 118 121 121 118 114 108 105 106 109 105 104 107 112 113 111 110 111 112 109 107 106 104 100 96 97 100 105 108 111 115 118 116 116 122 121 116 113 112 111 110 111 111 111 111 110 107 103 100 99 100 99 98 98 101 107 109 107 108 110 109 105 103 103 105 107 108 109 109 109 108 110 110 107
142 138 137 138 139 141 138 131 128 125 121 117 116 117 117 114 110 106 108 110 108 106 107 108 109 111 111 110 109 110 111 112 111 108 100 98 104 108 110 111 116 120 119 117 116 120 119 117 117 115 114 113 113 112 113 113 110 105 101 98 97 96 96 96 97 100 108 112 109 107 107 106 104 103 104 107 110 110 110 111 113 113 113 112 110
143 137 135 134 135 133 127 126 125 126 125 118 114 116 116 111 105 108 116 112 108 113 117 114 110 110 112 111 111 111 113 117 118 114 104 103 109 110 109 109 119 122 118 117 115 117 119 118 118 117 117 116 113 112 113 112 108 103 101 99 95 93 93 92 93 99 108 113 114 112 109 107 106 105 107 108 109 111 112 113 114 115 115 115 116
142 137 135 133 133 128 127 130 129 130 124 118 117 117 119 112 108 115 117 112 119 126 124 120 114 113 114 113 113 113 114 119 121 116 108 107 111 110 104 104 118 122 116 115 113 117 120 118 116 116 118 116 113 112 112 110 108 104 103 102 98 95 92 91 92 99 107 112 115 116 114 111 110 110 112 113 112 113 115 116 118 121 123 125 127
142 138 137 135 133 131 132 133 133 131 123 122 121 120 122 112 112 122 116 115 129 134 129 125 121 117 116 114 113 114 116 115 115 112 109 111 115 113 104 106 118 123 115 109 110 114 116 115 115 118 118 115 114 114 112 110 110 109 109 106 102 97 92 90 92 100 106 109 113 116 117 116 115 116 118 120 119 121 120 121 124 126 126 128 132
144 140 139 137 134 133 135 137 136 131 128 127 124 124 122 110 113 126 118 118 130 135 132 127 125 120 118 118 115 115 117 116 114 108 107 112 120 121 116 116 121 123 113 106 110 113 112 113 116 121 118 115 115 114 112 111 111 112 112 108 103 95 89 86 87 93 100 106 113 118 120 124 127 127 130 132 133 133 130 129 131 133 129 126 132
147 145 143 140 137 138 140 143 138 134 132 128 130 127 117 112 120 128 119 121 133 141 135 130 129 122 120 121 118 117 117 118 117 111 107 112 119 123 120 118 121 125 118 114 114 111 113 117 120 120 117 116 116 114 112 109 107 108 107 104 99 92 88 85 82 81 84 95 109 122 128 134 138 137 139 139 137 135 130 125 125 131 132 132 138
152 150 149 145 141 143 146 146 138 135 133 130 136 126 116 119 126 129 121 126 140 148 140 137 134 125 124 123 120 120 119 119 119 117 111 109 112 117 119 118 122 124 120 118 115 113 117 122 123 119 115 115 115 114 112 108 106 105 103 99 98 97 94 89 81 76 74 80 94 117 132 143 144 136 136 139 136 131 124 113 110 118 122 126 129
157 156 155 151 144 146 150 147 139 135 135 136 140 132 127 124 126 132 127 132 145 148 141 140 137 129 127 125 122 120 120 120 117 116 113 110 109 114 120 121 121 120 117 115 114 114 119 126 126 119 115 116 116 117 116 112 105 99 93 91 94 95 99 98 89 78 73 73 84 110 132 145 143 134 139 146 139 137 141 134 131 131 125 124 123
163 163 160 154 145 148 154 154 148 142 147 147 145 143 138 127 127 140 138 138 146 147 143 140 139 132 129 128 122 118 119 120 116 113 111 111 111 116 120 117 115 117 116 115 116 114 119 129 128 122 121 124 124 125 125 121 112 101 89 86 88 85 87 94 98 87 76 72 80 112 148 153 146 142 150 154 147 152 158 159 159 148 145 147 149
167 170 165 158 146 150 163 169 165 156 160 160 155 148 143 133 130 145 147 140 143 147 144 144 144 135 129 127 121 117 119 118 117 115 113 110 109 112 112 106 103 109 112 113 116 117 126 134 135 135 137 138 135 135 135 132 127 122 119 104 45 31 57 63 86 90 77 74 84 120 172 177 166 155 160 168 164 163 166 180 178 169 187 191 188
166 170 168 162 152 158 174 180 175 162 171 177 169 152 146 142 136 145 153 141 137 141 144 148 148 138 132 127 123 119 118 118 117 118 117 112 110 111 110 101 92 97 104 112 119 127 139 144 146 149 147 146 144 145 145 140 134 122 94 44 20 5 352 350 356 354 1 22 67 109 169 195 197 181 173 185 183 180 190 207 211 203 223 244 230
164 167 167 165 159 162 174 181 177 164 178 188 177 162 154 151 143 143 150 146 135 137 145 151 147 141 133 126 128 126 123 118 114 115 115 112 110 113 115 111 102 101 106 113 119 127 139 147 152 155 152 153 154 155 153 148 142 124 73 17 8 5 352 342 340 324 315 311 315 334 224 223 225 207 191 203 202 200 211 225 235 231 238 255 250
162 163 165 167 164 165 172 177 180 177 182 184 176 172 163 158 150 140 143 149 142 139 145 146 139 135 127 125 133 135 133 120 108 108 109 109 110 112 113 113 113 114 116 115 117 123 128 137 150 157 158 160 162 165 165 163 161 152 121 2 353 355 348 341 334 316 301 298 300 303 300 288 262 230 204 214 221 220 223 228 242 247 234 242 251
163 163 164 167 170 170 173 182 188 182 186 187 178 174 165 163 155 139 142 148 153 153 148 141 136 134 130 132 140 141 140 122 105 100 100 102 108 113 112 113 116 119 119 118 120 123 120 123 137 150 158 164 170 175 179 180 183 185 194 309 327 336 336 329 327 315 294 289 290 293 296 292 278 254 226 226 232 232 233 235 240 240 234 238 241
167 167 165 169 174 168 171 191 196 179 187 198 184 175 170 173 160 148 149 147 159 167 153 143 142 147 145 145 144 142 139 122 106 94 94 98 104 109 108 112 116 117 119 118 119 119 117 116 120 129 142 160 175 185 194 197 199 206 224 268 294 302 309 312 321 319 295 282 282 283 288 287 278 260 239 234 239 236 236 239 240 241 237 229 225
169 169 167 172 176 170 172 194 199 179 185 193 186 183 179 181 167 158 152 147 159 166 157 148 145 146 145 144 141 140 135 122 107 91 90 97 101 100 101 111 115 115 117 117 116 114 114 113 112 112 119 143 172 194 207 214 220 226 239 261 274 282 295 302 311 315 298 278 273 276 280 279 273 260 239 233 240 237 236 238 241 243 234 225 240
168 170 169 173 177 173 174 184 188 179 179 179 184 190 189 188 174 162 147 149 162 159 157 150 139 141 146 146 143 143 139 130 117 100 88 89 95 93 96 105 109 112 113 114 111 107 109 107 103 98 97 118 171 204 217 226 233 239 247 257 263 274 288 292 296 301 297 277 267 270 272 271 267 253 233 233 237 233 234 236 238 237 226 229 249
169 172 173 178 178 173 170 173 180 177 172 173 179 188 196 195 176 159 146 155 162 154 156 148 139 145 151 146 142 146 146 140 125 104 91 91 93 86 88 94 100 108 105 106 104 101 100 95 93 87 86 83 177 227 232 238 241 245 251 255 260 270 280 283 286 292 294 278 265 266 265 266 263 247 229 233 234 227 230 234 236 234 231 241 248
175 179 180 182 180 178 178 180 186 179 171 171 170 179 195 193 170 151 153 166 160 158 162 154 148 150 148 142 140 147 150 140 123 106 95 100 96 88 94 99 107 110 100 99 91 80 74 75 78 70 67 34 341 299 272 257 252 252 254 256 261 268 273 279 283 288 290 277 264 262 262 263 258 241 226 230 228 220 224 234 239 237 240 246 243
181 185 185 186 183 185 190 196 206 192 175 170 166 175 182 173 164 158 175 175 161 163 160 152 150 147 142 138 135 141 148 140 132 127 107 100 96 96 106 108 106 99 84 71 53 38 33 33 24 6 340 323 304 285 272 264 259 257 259 260 262 266 270 275 282 287 284 270 259 258 259 256 248 233 222 224 221 213 221 233 236 232 235 238 237
178 183 187 188 186 189 197 203 226 221 190 177 170 172 169 166 175 178 183 173 164 164 152 148 145 139 138 137 135 139 146 142 139 130 110 99 93 91 90 86 77 56 35 30 27 17 10 1 346 331 318 307 294 284 276 270 264 260 260 260 263 267 270 276 285 286 270 255 250 250 248 240 232 223 215 218 214 212 226 235 233 228 226 231 235
178 182 184 186 186 189 198 199 213 223 210 198 180 170 170 176 182 182 180 169 165 163 151 147 137 133 137 138 141 143 145 141 136 126 114 108 99 91 80 69 51 31 16 14 10 0 351 343 334 326 320 307 296 290 281 277 272 265 258 258 263 267 267 275 281 264 238 229 229 231 229 222 215 209 207 212 215 216 224 231 229 225 225 231 236
180 182 182 187 188 189 200 199 197 203 203 199 186 178 181 182 180 175 176 171 165 161 154 148 136 135 137 143 151 149 144 137 131 125 119 119 113 107 96 79 55 34 13 7 359 351 344 338 335 335 336 325 308 292 279 275 269 262 258 258 258 255 259 271 261 224 209 202 205 210 209 206 197 194 198 204 210 214 216 220 221 223 228 234 238
180 181 179 185 188 186 194 191 185 191 194 192 187 186 186 182 176 172 177 176 169 162 156 148 142 143 145 154 158 150 139 128 126 125 126 129 120 115 104 77 49 24 3 0 354 352 349 343 343 350 355 344 323 289 267 261 256 252 252 252 241 239 255 253 197 184 181 176 181 187 189 187 181 181 192 199 204 210 214 219 223 227 232 238 244
181 180 175 182 187 184 187 182 180 185 186 188 188 185 186 186 181 178 180 177 169 161 155 150 149 152 153 156 153 141 127 120 123 125 127 120 107 97 78 50 26 6 358 360 355 354 355 352 350 354 356 347 331 301 261 249 246 240 236 232 222 224 201 156 157 162 157 156 164 170 174 174 175 181 193 206 212 218 223 229 235 242 247 253 261
186 185 177 181 184 183 186 182 181 183 182 186 187 183 185 189 186 181 179 170 163 160 156 153 154 154 150 147 139 129 120 119 122 121 116 103 91 72 45 13 10 1 356 3 360 355 357 358 355 353 352 347 337 320 286 249 236 227 220 214 202 184 156 154 156 157 151 151 158 165 176 178 191 209 218 227 234 239 244 249 255 261 267 273 277
190 190 183 180 178 181 184 182 182 181 179 183 185 183 185 188 185 180 174 167 163 163 160 156 155 150 144 141 134 129 127 125 123 117 109 99 83 55 23 354 8 4 356 2 2 355 356 1 358 351 348 346 335 308 304 236 224 221 216 207 194 181 167 163 163 162 157 156 158 166 188 211 233 249 252 253 258 260 266 270 274 278 281 285 288
192 193 189 182 177 180 181 181 181 178 177 180 182 182 183 184 181 176 173 167 165 164 160 157 153 148 147 145 141 141 137 132 129 121 106 94 75 42 11 5 11 4 357 358 1 357 358 2 355 347 342 340 324 235 184 196 212 218 211 200 197 193 185 180 175 170 169 174 182 202 238 261 271 277 279 277 277 278 281 284 287 289 291 293 294
191 194 193 187 183 183 181 181 181 177 176 177 178 178 178 178 175 172 170 167 165 164 161 160 159 161 165 165 167 167 157 150 144 131 111 91 71 55 28 19 8 1 1 359 1 359 357 357 347 344 341 338 329 218 191 181 199 209 201 198 200 202 206 207 207 214 238 269 282 287 286 287 289 290 290 291 290 290 292 293 295 297 298 299 300
188 190 193 191 189 187 182 183 181 177 176 176 176 174 175 174 171 169 168 168 169 170 170 172 176 185 196 201 198 191 179 165 151 139 119 101 92 72 42 17 358 2 5 1 1 357 354 352 341 349 346 336 335 220 205 198 201 212 209 211 212 214 227 230 241 257 269 284 291 293 294 293 294 294 294 294 294 295 296 298 299 300 301 300 300
187 189 192 190 189 187 182 182 180 177 175 175 175 172 173 170 167 167 168 172 176 177 179 185 198 213 219 213 200 189 176 163 153 141 118 115 123 94 47 8 356 4 1 358 0 354 351 347 339 354 351 332 332 222 214 215 215 226 225 228 231 236 244 249 257 266 276 284 289 292 294 296 297 297 297 296 295 295 296 297 300 301 301 300 298
188 188 189 187 187 185 182 181 179 177 175 173 172 170 169 167 166 168 172 177 180 181 183 196 214 219 210 199 190 177 166 157 150 137 126 152 174 167 120 349 352 358 359 4 5 355 350 345 346 6 2 338 328 234 216 224 227 235 239 244 250 253 258 265 270 274 280 285 290 293 295 297 299 299 298 297 296 296 297 297 298 300 302 300 296
189 187 185 185 186 183 182 183 179 177 175 172 171 170 168 167 168 171 177 182 184 185 187 198 207 204 188 186 182 171 162 158 152 148 174 200 203 201 231 304 336 356 7 20 14 3 355 350 9 25 16 351 331 272 220 227 232 239 246 253 260 265 270 276 281 284 285 286 291 295 298 300 300 300 298 297 297 298 298 296 295 299 304 304 296
189 188 186 186 185 182 183 184 180 177 175 173 172 170 169 169 173 177 184 189 191 192 195 201 200 191 178 179 180 175 167 168 185 221 222 222 218 217 241 270 316 352 11 23 18 8 2 3 25 35 29 17 356 335 234 234 238 243 252 262 270 273 277 282 287 291 290 290 294 296 299 300 301 301 300 301 302 301 300 297 295 301 307 306 299
188 187 187 188 187 185 185 183 181 178 176 175 174 173 174 175 179 185 193 197 198 200 205 208 201 195 186 179 183 188 188 201 230 238 228 228 224 220 228 254 309 337 4 18 12 359 0 13 25 36 34 39 45 36 257 245 243 245 254 266 271 272 276 282 292 297 296 294 294 295 298 301 304 305 308 311 312 310 307 303 302 302 303 300 299
188 188 187 189 189 187 186 185 183 181 178 178 179 180 181 184 189 195 202 203 205 209 216 217 208 204 200 190 194 206 210 216 231 234 227 224 224 225 229 264 307 319 1 12 359 356 2 5 16 35 31 37 47 36 266 243 239 245 253 259 264 268 274 283 290 293 294 293 290 293 304 310 312 309 308 310 311 312 310 305 300 296 296 299 304
187 188 187 191 193 190 189 186 185 185 184 184 185 186 187 189 195 201 206 206 209 217 223 222 214 208 205 203 209 215 214 217 226 228 225 228 233 235 239 266 300 319 354 354 355 5 5 354 0 23 28 42 41 33 4 245 233 242 233 230 245 247 255 271 280 284 286 291 287 293 315 321 317 310 304 304 304 305 302 299 300 299 297 301 309
187 189 190 192 196 196 193 189 189 191 190 190 191 192 192 192 196 200 203 207 212 220 224 218 210 207 209 210 215 217 214 215 222 225 227 233 241 245 247 260 283 310 324 333 345 358 5 4 3 0 25 41 40 40 28 357 228 217 180 198 248 227 238 217 207 305 286 305 303 302 330 333 329 326 318 311 301 292 291 299 309 308 298 295 303
187 189 191 193 197 200 198 194 194 195 195 196 197 198 198 196 197 198 201 208 216 223 223 213 208 210 214 216 218 216 212 213 218 223 226 231 240 248 248 255 269 283 298 313 326 341 358 13 18 9 16 34 41 45 38 37 36 22 37 10 20 353 297 218 298 312 279 317 319 315 342 349 353 349 338 329 310 291 292 307 317 314 298 288 291
188 189 190 193 198 203 202 198 198 199 199 199 201 202 202 200 201 205 211 219 226 228 223 215 214 216 216 217 216 215 213 213 216 219 224 226 230 239 245 255 264 268 282 298 310 329 350 4 13 11 10 21 39 47 47 49 38 19 12 30 85 15 328 299 326 319 306 331 326 337 348 354 1 353 342 339 329 314 311 319 328 324 305 289 283
190 192 192 194 198 203 204 202 200 201 203 202 201 202 205 206 209 216 223 227 228 225 218 215 217 219 217 215 213 214 215 213 215 218 221 224 227 235 244 253 259 264 276 291 300 315 336 349 357 357 1 13 20 27 47 53 45 42 44 51 27 354 245 302 328 322 337 340 337 350 349 354 358 352 346 345 341 336 332 331 333 329 312 295 281
194 196 196 197 199 203 204 205 203 202 204 204 202 204 208 212 216 219 217 215 215 215 215 215 215 215 214 213 213 215 216 215 217 217 219 224 228 235 244 251 257 263 273 285 293 301 316 329 337 341 347 358 358 1 21 34 40 41 39 34 10 338 262 311 338 304 332 335 336 348 352 355 353 353 352 349 345 343 341 338 337 336 329 314 311
198 198 198 199 201 204 205 206 205 205 204 204 205 208 212 217 222 224 221 214 212 216 219 218 216 215 213 213 215 216 217 218 219 218 220 223 228 238 248 254 258 263 272 282 288 290 300 309 315 320 327 343 351 359 10 13 20 26 30 27 14 2 327 328 323 293 329 326 328 341 352 353 350 353 354 352 349 346 346 349 353 358 1 1 6
197 196 197 200 201 203 206 207 205 205 205 205 208 213 217 222 225 226 224 221 218 219 220 218 217 217 215 213 214 217 221 223 221 220 220 223 229 240 250 257 260 263 269 276 279 279 286 294 303 309 311 330 347 358 4 6 8 7 13 15 12 13 355 332 301 292 297 295 321 335 342 343 346 352 355 353 349 346 348 357 4 6 6 8 6
196 195 197 200 202 202 204 207 206 206 207 208 212 219 223 224 224 223 221 220 220 220 217 215 216 216 215 214 214 219 223 225 223 221 221 225 231 238 249 257 259 261 266 271 271 269 276 285 301 310 310 325 339 349 355 354 354 353 358 3 5 6 358 347 324 303 261 263 299 317 327 336 341 345 352 352 349 349 350 356 6 9 7 4 351
198 198 198 198 201 202 203 206 208 206 208 213 218 223 224 221 219 218 218 217 217 217 215 215 216 215 216 216 218 221 222 224 224 222 222 223 227 236 248 254 254 254 261 267 267 265 272 284 301 307 305 314 321 328 339 343 341 338 343 350 354 0 1 351 327 319 290 259 260 277 306 322 328 331 344 349 347 353 353 354 7 8 6 1 345
199 198 198 198 200 202 203 205 208 208 209 214 219 221 217 215 216 218 219 219 218 216 215 215 216 216 217 220 223 224 224 226 227 224 222 222 229 238 248 253 251 251 256 263 265 266 271 282 297 299 293 296 300 307 319 330 333 327 331 338 345 352 348 317 311 313 294 262 260 280 300 315 313 313 332 343 344 353 355 350 359 2 3 3 358